[[{"header":{"parameterUnit":"m.s-1","parameterCategory":1,"la1":30.2991,"la2":30.254,"lo1":-89.0895,"lo2":-89.0444,"dy":0.0017,"dx":0.0017,"nx":28,"ny":28,"refTime":"2025-02-13T09:00:00:Z","depth":0,"parameterNumber":2,"parameterNumberName":"U-component_of_WINDS"},"data":[0,0,0,0,0,0,0,0,0,0,0,0,0,0,0,0,0,0,0,0,0,0,0,0,0,0,0,0,0,0,0,0,0,0,0,0,0,0,0,0,0,0,0,0,0,0,0,0,0,0,0,0,0,0,0,0,0,0,-3.6885,-3.6887,0,-3.7066,-3.7068,-3.707,-3.7145,-3.7145,-3.7145,-3.7144,-3.7331,-3.7336,-3.7341,0,0,0,0,0,0,0,0,0,0,0,0,0,-3.6605,-3.6609,-3.6885,-3.6887,-3.6889,-3.7066,-3.7068,-3.7071,-3.7146,-3.7145,-3.7145,-3.7144,-3.7329,-3.7336,-3.7342,0,0,0,0,0,0,0,0,0,0,0,0,0,-3.675,-3.6611,-3.6884,-3.6948,-3.6955,-3.7065,-3.7069,-3.7072,-3.7146,-3.7145,-3.7144,-3.7144,-3.7327,-3.7335,-3.7343,-3.7404,0,0,-3.7367,-3.7371,0,0,0,0,0,0,0,0,-3.6742,-3.676,-3.6936,-3.6944,-3.6952,-3.7083,-3.7038,-3.7183,-3.7146,-3.7073,-3.7144,-3.7144,-3.7249,-3.7263,-3.7299,-3.7412,-3.742,-3.7368,-3.7373,-3.7376,-3.7378,0,0,0,0,0,0,0,-3.6732,-3.6753,-3.6957,-3.6939,-3.6948,-3.6968,-3.6988,-3.7066,-3.7162,-3.708,-3.7085,-3.7106,-3.7253,-3.7291,-3.7304,-3.7423,-3.7368,-3.7375,-3.738,-3.7383,-3.7598,-3.7598,0,0,0,0,0,0,-3.6711,-3.6744,-3.6951,-3.6962,-3.6843,-3.6973,-3.6996,-3.7041,-3.7162,-3.7179,-3.7106,-3.7109,-3.7277,-3.7294,-3.731,-3.739,-3.7376,-3.7384,-3.7388,-3.7597,-3.7598,-3.7599,0,0,0,0,0,0,-3.6705,-3.6729,-3.6944,-3.6855,-3.6884,-3.6979,-3.7029,-3.7045,-3.7083,-3.7182,-3.7199,-3.7127,-3.7278,-3.7299,-3.738,-3.7398,-3.7387,-3.7395,-3.7596,-3.7597,-3.7598,-3.755,0,0,0,0,0,0,-3.6696,-3.6726,-3.6749,-3.6855,-3.6888,-3.7009,-3.703,-3.7049,-3.7096,-3.7101,-3.7206,-3.7222,-3.7279,-3.7368,-3.7388,-3.7409,-3.7401,-3.7594,-3.7596,-3.7598,-3.755,-3.7549,-3.7548,0,0,0,0,0,-3.6686,-3.6728,-3.675,-3.6775,-3.6919,-3.701,-3.7029,-3.7093,-3.7097,-3.7122,-3.7186,-3.7219,-3.7393,-3.7375,-3.7399,-3.7422,-3.7594,-3.7596,-3.7598,-3.755,-3.7549,-3.7548,0,0,0,0,0,0,-3.6623,-3.6743,-3.6769,-3.6846,-3.6917,-3.7023,-3.7056,-3.709,-3.7161,-3.7163,-3.724,-3.7263,-3.7337,-3.7388,-3.7367,-3.7488,-3.7496,-3.7503,-3.7452,-3.7452,-3.7451,-3.7437,-3.7407,0,0,0,0,0,-3.6618,-3.6681,-3.6783,-3.6842,-3.6876,-3.696,-3.7002,-3.7045,-3.7122,-3.7152,-3.7222,-3.7295,-3.7367,-3.7412,-3.7483,-3.7558,-3.7582,-3.7586,-3.7585,-3.7584,-3.7588,-3.7633,-3.7636,-3.7606,-3.7606,-3.7605,0,0,-3.6608,-3.6682,-3.6717,-3.6831,-3.6891,-3.6956,-3.6985,-3.7051,-3.71,-3.7163,-3.7243,-3.7297,-3.7385,-3.7463,-3.7501,-3.7507,-3.7602,-3.7586,-3.7584,-3.759,-3.7635,-3.7638,-3.764,-3.7607,-3.7607,-3.7606,0,0,-3.6624,-3.6686,-3.6742,-3.6801,-3.6892,-3.6948,-3.6961,-3.7062,-3.71,-3.7182,-3.723,-3.729,-3.7411,-3.7472,-3.7518,-3.7558,-3.7592,-3.7579,-3.7574,-3.7617,-3.7619,-3.7622,-3.7636,-3.764,-3.7584,-3.7584,-3.7584,0,-3.66,-3.6699,-3.6766,-3.6831,-3.688,-3.6939,-3.6997,-3.7052,-3.7161,-3.7194,-3.72,-3.7354,-3.7417,-3.7511,-3.7521,-3.7556,-3.7575,-3.7567,-3.7613,-3.7616,-3.762,-3.7634,-3.764,-3.7582,-3.7582,-3.7582,-3.7582,0,-3.6666,-3.6733,-3.6768,-3.6872,-3.6925,-3.6985,-3.7063,-3.7109,-3.7148,-3.7203,-3.7286,-3.7364,-3.7453,-3.7478,-3.7517,-3.7578,-3.7579,-3.7598,-3.7608,-3.7619,-3.7634,-3.7641,-3.7579,-3.758,-3.758,-3.7581,0,0,-3.6646,-3.6787,-3.6798,-3.6846,-3.6951,-3.7005,-3.7069,-3.7155,-3.7193,-3.7267,-3.7323,-3.7425,-3.7444,-3.7496,-3.7543,-3.758,-3.7607,-3.7595,-3.7598,-3.7594,-3.768,-3.7665,-3.767,-3.763,-3.7632,-3.7633,-3.7673,0,-3.6675,-3.6791,-3.6854,-3.6944,-3.7008,-3.7066,-3.7122,-3.7193,-3.7247,-3.7309,-3.7369,-3.744,-3.7459,-3.7491,-3.7531,-3.7595,-3.7625,-3.7593,-3.7683,-3.7686,-3.7659,-3.7678,-3.7662,-3.7696,-3.7679,-3.768,-3.7681,0,-3.6725,-3.6797,-3.6893,-3.6992,-3.7021,-3.707,-3.7155,-3.7214,-3.7296,-3.7332,-3.7392,-3.7438,-3.7509,-3.7513,-3.7612,-3.7589,-3.763,-3.7667,-3.767,-3.7681,-3.7683,-3.7689,-3.7708,-3.7713,-3.7691,-3.769,-3.7689,0,-3.67,-3.6822,-3.6896,-3.6935,-3.7052,-3.7085,-3.7135,-3.7217,-3.7265,-3.734,-3.7372,-3.7453,-3.7498,-3.7561,-3.7628,-3.7625,-3.7721,-3.7731,-3.7753,-3.7752,-3.777,-3.7768,-3.7796,-3.7797,-3.7797,-3.7797,-3.7797,0,-3.6727,-3.6783,-3.6887,-3.6931,-3.6997,-3.707,-3.7133,-3.7188,-3.726,-3.7318,-3.7374,-3.7427,-3.7513,-3.7577,-3.763,-3.7704,-3.7724,-3.7756,-3.7769,-3.7751,-3.7746,-3.7778,-3.7777,-3.7798,-3.7798,-3.7798,-3.7797,0,-3.671,-3.6781,-3.6865,-3.6969,-3.6997,-3.704,-3.713,-3.7176,-3.7233,-3.7305,-3.7326,-3.7416,-3.7494,-3.7568,-3.7672,-3.7709,-3.7783,-3.7801,-3.7755,-3.7762,-3.7781,-3.7778,-3.783,-3.784,-3.7834,-3.7834,-3.7834,0,-3.6722,-3.6767,-3.6875,-3.6917,-3.6966,-3.7034,-3.7083,-3.7157,-3.7206,-3.7304,-3.7339,-3.7421,-3.7491,-3.7614,-3.7689,-3.7769,-3.7789,-3.7802,-3.7802,-3.7782,-3.779,-3.7786,-3.7791,-3.78,-3.78,-3.78,-3.78,0,-3.6735,-3.6769,-3.6837,-3.6919,-3.6976,-3.7044,-3.7113,-3.7145,-3.7232,-3.7285,-3.7366,-3.742,-3.7527,-3.7608,-3.7698,-3.7751,-3.779,-3.7799,-3.7809,-3.779,-3.7762,-3.7777,-3.7751,-3.7797,-3.7798,-3.7798,-3.7798,-3.7798,-3.6734,-3.6776,-3.6859,-3.6934,-3.6995,-3.7058,-3.7107,-3.717,-3.7239,-3.7331,-3.7371,-3.7452,-3.7535,-3.7659,-3.7712,-3.7778,-3.7786,-3.78,-3.7804,-3.7806,-3.7802,-3.7751,-3.7794,-3.7795,-3.7795,-3.7795,-3.7795,0,-3.675,-3.6807,-3.6875,-3.697,-3.7029,-3.7061,-3.714,-3.7187,-3.7258,-3.7332,-3.7399,-3.7492,-3.7572,-3.7653,-3.7738,-3.7775,-3.7795,-3.7794,-3.7792,-3.7804,-3.7789,-3.7773,-3.7777,-3.7777,-3.7777,-3.7777,-3.7777,-3.7777,-3.6766,-3.684,-3.6883,-3.6988,-3.7044,-3.7124,-3.7167,-3.7226,-3.7285,-3.7386,-3.7452,-3.7505,-3.7582,-3.7673,-3.7747,-3.777,-3.7798,-3.7792,-3.7819,-3.7804,-3.7805,-3.7806,-3.779,-3.7798,-3.7798,-3.7829,-3.7829,-3.7829]},{"header":{"parameterUnit":"m.s-1","parameterCategory":1,"la1":30.2991,"la2":30.254,"lo1":-89.0895,"lo2":-89.0444,"dy":0.0017,"dx":0.0017,"nx":28,"ny":28,"refTime":"2025-02-13T09:00:00:Z","depth":0,"parameterNumber":3,"parameterNumberName":"V-component_of_WINDS"},"data":[0,0,0,0,0,0,0,0,0,0,0,0,0,0,0,0,0,0,0,0,0,0,0,0,0,0,0,0,0,0,0,0,0,0,0,0,0,0,0,0,0,0,0,0,0,0,0,0,0,0,0,0,0,0,0,0,0,0,5.2419,5.242,0,5.2539,5.254,5.2541,5.2558,5.2557,5.2556,5.2555,5.2678,5.2682,5.2687,0,0,0,0,0,0,0,0,0,0,0,0,0,5.2206,5.221,5.2418,5.242,5.2421,5.2538,5.254,5.2542,5.2558,5.2557,5.2555,5.2554,5.2677,5.2682,5.2687,0,0,0,0,0,0,0,0,0,0,0,0,0,5.2309,5.2211,5.2418,5.2444,5.2447,5.2538,5.254,5.2542,5.2558,5.2557,5.2555,5.2554,5.2675,5.2681,5.2688,5.2762,0,0,5.2708,5.2711,0,0,0,0,0,0,0,0,5.2304,5.2317,5.2438,5.2442,5.2446,5.2532,5.2511,5.2616,5.2559,5.2516,5.2555,5.2553,5.2631,5.2641,5.2667,5.2768,5.2773,5.2708,5.2712,5.2715,5.2717,0,0,0,0,0,0,0,5.2296,5.2312,5.2466,5.244,5.2445,5.245,5.2463,5.2531,5.2582,5.252,5.2521,5.2535,5.2633,5.2661,5.267,5.2775,5.2708,5.2714,5.2718,5.272,5.2946,5.2948,0,0,0,0,0,0,5.2284,5.2306,5.2462,5.247,5.2369,5.2455,5.247,5.2506,5.2581,5.2591,5.2537,5.2536,5.2651,5.2663,5.2675,5.2769,5.2715,5.2721,5.2725,5.2944,5.2947,5.2949,0,0,0,0,0,0,5.228,5.2298,5.2457,5.2388,5.2409,5.2461,5.2501,5.2509,5.2537,5.2594,5.2603,5.2556,5.265,5.2665,5.2741,5.2773,5.2724,5.273,5.2942,5.2945,5.2948,5.2956,0,0,0,0,0,0,5.2273,5.2296,5.2324,5.2389,5.2413,5.2521,5.2503,5.2513,5.2549,5.2548,5.2614,5.2623,5.265,5.2731,5.2747,5.2781,5.2735,5.2939,5.2943,5.2947,5.2953,5.2959,5.2964,0,0,0,0,0,5.2266,5.2321,5.2325,5.2344,5.2448,5.2522,5.2536,5.2565,5.2551,5.258,5.2617,5.2621,5.2767,5.2739,5.2757,5.2793,5.2937,5.2942,5.2946,5.2951,5.2958,5.2964,0,0,0,0,0,0,5.2258,5.233,5.2335,5.2413,5.2462,5.2525,5.2562,5.2571,5.2625,5.2623,5.2656,5.2671,5.2746,5.2777,5.2744,5.2871,5.2851,5.286,5.2848,5.2855,5.2861,5.2852,5.274,0,0,0,0,0,5.2265,5.2318,5.2379,5.2441,5.2466,5.251,5.2543,5.2562,5.2613,5.2634,5.2676,5.2727,5.2784,5.2821,5.2877,5.2958,5.2974,5.2992,5.2998,5.3002,5.3009,5.3058,5.3068,5.2964,5.2964,5.2964,0,0,5.228,5.2326,5.2358,5.2441,5.2481,5.2537,5.2527,5.2586,5.2629,5.2643,5.2718,5.275,5.2809,5.2889,5.2926,5.2917,5.3042,5.3008,5.3011,5.3016,5.3064,5.3073,5.3082,5.2968,5.2967,5.2966,0,0,5.2337,5.2377,5.2435,5.2475,5.2536,5.2566,5.258,5.2643,5.2666,5.2741,5.2755,5.2806,5.2903,5.2946,5.298,5.3058,5.3065,5.3075,5.3104,5.3151,5.3159,5.3166,5.3196,5.3206,5.3082,5.3082,5.3082,0,5.2349,5.2433,5.2463,5.2523,5.256,5.2577,5.2637,5.2675,5.2751,5.2778,5.2767,5.2892,5.2933,5.3024,5.3043,5.307,5.3088,5.3068,5.3155,5.3163,5.317,5.3199,5.321,5.3083,5.3083,5.3083,5.3083,0,5.2446,5.2505,5.2544,5.2619,5.266,5.272,5.276,5.2799,5.2815,5.2846,5.2924,5.2974,5.3042,5.3065,5.308,5.3159,5.3153,5.3148,5.3129,5.3181,5.3209,5.322,5.3084,5.3084,5.3084,5.3083,0,0,5.25,5.2592,5.2606,5.2642,5.2712,5.2758,5.282,5.2886,5.292,5.2973,5.3027,5.3111,5.3108,5.3147,5.3168,5.3209,5.327,5.32,5.3202,5.3213,5.3364,5.3368,5.338,5.3275,5.3278,5.3279,5.336,0,5.2567,5.2677,5.2707,5.28,5.2857,5.2875,5.2929,5.2979,5.301,5.3064,5.3099,5.3159,5.3149,5.3174,5.3215,5.3254,5.3301,5.3248,5.3328,5.333,5.3314,5.3395,5.3398,5.3472,5.3371,5.3373,5.3374,0,5.2659,5.2715,5.2814,5.288,5.2905,5.2953,5.3018,5.3068,5.3126,5.3147,5.3192,5.3209,5.3276,5.3253,5.3347,5.3311,5.3345,5.337,5.3373,5.3383,5.3356,5.3408,5.3496,5.3508,5.3391,5.339,5.3389,0,5.2692,5.2792,5.2865,5.2894,5.2972,5.3006,5.304,5.3096,5.3135,5.3193,5.3219,5.3283,5.3319,5.3369,5.3405,5.3384,5.3497,5.3476,5.3517,5.3517,5.3541,5.3539,5.3637,5.356,5.356,5.356,5.356,0,5.2764,5.2825,5.2881,5.2926,5.2996,5.303,5.3099,5.3134,5.3184,5.3238,5.3257,5.3307,5.335,5.3406,5.3434,5.351,5.3525,5.3545,5.3552,5.3544,5.3542,5.3568,5.3565,5.3563,5.3562,5.3562,5.3561,0,5.2812,5.2852,5.2933,5.3001,5.302,5.3068,5.3127,5.3173,5.3206,5.3274,5.3292,5.3344,5.3412,5.3452,5.3537,5.3556,5.3641,5.3644,5.3621,5.3625,5.3665,5.3662,5.3785,5.3804,5.3712,5.3713,5.3714,0,5.2857,5.2904,5.2978,5.3015,5.305,5.3109,5.315,5.3187,5.3229,5.3301,5.3338,5.3407,5.3465,5.3573,5.3619,5.3686,5.3692,5.3731,5.3702,5.3694,5.3696,5.3693,5.37,5.3736,5.3737,5.3738,5.3738,0,5.2932,5.295,5.3008,5.3074,5.3122,5.3175,5.3229,5.3258,5.3305,5.3351,5.3421,5.3466,5.3554,5.3624,5.3695,5.3731,5.3744,5.3747,5.3761,5.3754,5.3739,5.375,5.3637,5.3744,5.3743,5.3743,5.3743,5.3742,5.2982,5.3026,5.3085,5.315,5.3194,5.3244,5.3291,5.3331,5.339,5.3465,5.3483,5.3558,5.3617,5.3714,5.3752,5.3812,5.3806,5.3825,5.383,5.3835,5.3837,5.3729,5.3825,5.3825,5.3825,5.3825,5.3825,0,5.306,5.31,5.3159,5.3234,5.3285,5.3292,5.3352,5.3395,5.346,5.3515,5.3571,5.3654,5.3722,5.3774,5.3845,5.3883,5.389,5.39,5.3899,5.3908,5.3837,5.382,5.3893,5.3893,5.3893,5.3893,5.3893,5.3893,5.3107,5.3183,5.3209,5.3308,5.3348,5.342,5.3455,5.3502,5.3546,5.3637,5.3694,5.3727,5.3782,5.3857,5.3921,5.3935,5.3961,5.397,5.3986,5.3919,5.3912,5.3905,5.3889,5.3975,5.3975,5.4051,5.4052,5.4052]}]]